Location: Beuerbach
(48.1459°N, 10.9174°E)
Time: 10:21:19
(UTC+00:00)

SL-16 R/B - Pass Details

Date: 23 May 2024
Orbit: 842 x 845 km, 71.0° (Epoch: 15 June)

Event Time Altitude Azimuth Distance (km) Brightness Sun altitude
Rises 01:35:46 0° 328° (NNW) 3,416 5.7 -14.2°
Reaches altitude 10° 01:38:18 10° 322° (NW) 2,477 4.9 -13.9°
Maximum altitude 01:43:41 46° 251° (WSW) 1,122 2.5 -13.4°
Enters shadow 01:49:00 10° 180° (S) 2,438 4.1 -12.9°
